Regional Weather Roundup
Issued by NWS Charleston, SC

Current Version | Previous Version | Graphics & Text | Print | Product List | Glossary On
Versions: 1 2 3 4 5 6 7 8 9 10 11 12 13 14 15 16 17 18 19 20 21 22 23 24 25 26 27 28 29 30 31 32 33 34 35 36 37 38 39 40 41 42 43 44 45 46 47 48 49 50
479
ASUS42 KCHS 170712
RWRCHS

Regional Weather Roundup
National Weather Service Charleston SC
200 AM EST SUN DEC 17 2017

NOTE: "fair" indicates few or no clouds below 12,000 feet with no
significant weather and/or obstructions to visibility.

Not all stations are quality controlled. Use data with caution,
especially dewpoint observations.

SCZ027-030-031-034>040-042>050-170800-
...Southeast South Carolina...

CITY           SKY/WX    TMP DP  RH WIND       PRES   REMARKS
N Charleston   PTCLDY    35  34  96 CALM      30.30F
Waterfront Prk   N/A     43  40  89 CALM      30.15S
Mount Pleasant FAIR      34  32  93 CALM      30.30F FOG
Johns Island   FAIR      34  32  93 CALM      30.30F
Pinopolis        N/A     43  39  87 CALM      30.21F
Moncks Corner  FAIR      32  30  93 CALM      30.30S FOG
Summerville    FAIR      32  30  93 CALM      30.31S
Beaufort MCAS  FOG       33  33 100 SW5       30.31S VSB 1/4 WCI  29
Beaufort Arpt  FAIR      37  36  93 CALM      30.31R FOG
Hilton Head Is CLEAR     37  36  93 CALM      30.32S
Walterboro     CLOUDY    30  28  93 CALM      30.31S
Allendale      FAIR      30  30 100 CALM      30.29F

...Southern Midlands and Pee Dee...

CITY           SKY/WX    TMP DP  RH WIND       PRES   REMARKS
Georgetown     FAIR      32  30  93 CALM      30.31S
Kingstree      FAIR      32  30  93 CALM      30.30F
Orangeburg     PTCLDY    30  29  96 CALM      30.29S
Barnwell         N/A     30  28  93 CALM      30.29S
Aiken          FAIR      28  27  93 CALM      30.31S
Manning        FAIR      30  28  93 MISG      30.29F
Columbia       CLOUDY    30  27  88 CALM      30.28F
Sumter         CLOUDY    30  27  88 CALM      30.27F
Florence       CLOUDY    31  28  89 CALM      30.30S
Myrtle Beach   CLOUDY    36  33  89 CALM      30.31F
N Myrtle Beach CLOUDY    35  33  92 NW3       30.30S

$$

GAZ063-065-086>088-099>101-113>116-118-119-134>141-150-170800-
...Southeast Georgia...

CITY           SKY/WX    TMP DP  RH WIND       PRES   REMARKS
Savannah Arpt  PTCLDY    35  33  92 CALM      30.31F
Hunter AAF     DRIZZLE  N/A N/A N/A MISG        N/A
Fort Stewart     N/A     35  33  92 CALM        N/A
Statesboro     CLEAR     32  32 100 CALM      30.30F
Sylvania       CLOUDY    32  32 100 CALM      30.31S
Claxton        FAIR      32  32  99 CALM      30.31F

...CSRA, Central and far Southeast Georgia...

CITY           SKY/WX    TMP DP  RH WIND       PRES   REMARKS
Thomson        CLOUDY    28  26  94 CALM      30.32F FOG
Augusta-Bush   CLOUDY    28  27  96 CALM      30.29F
Augusta-Daniel CLOUDY    38  30  73 CALM      30.28F
Swainsboro     FAIR      34  34 100 CALM      30.30F
Vidalia        CLOUDY    36  34  93 CALM      30.29F
Eastman        FAIR      33  28  83 CALM      30.31F
Hazlehurst     FAIR      39  33  78 CALM      30.28S
Alma           CLOUDY    36  34  92 CALM      30.29F FOG
Waycross       CLOUDY    38  36  90 CALM      30.30S
Jesup          NOT AVBL
Baxley         FAIR      34  34 100 CALM      30.28F
Brunswick      FOG       36  36 100 CALM      30.31S VSB 1/2
Saint Simons   CLOUDY    42  41  96 CALM      30.29F

$$

SCZ027-028-034-036>038-045-046-048>050-GAZ119-141-170800-
...Lake and Supplemental Coastal Observations...

STATION/POSITION TIME  TEMP    WIND        PRES    WAVE   SWELL
                       AIR SEA DIR/SP/G            HT/PER HT/PER/DIR
                 (UTC) (F)     (DEG/KT/KT) (MB)    (FT/S) (FT/S/D)
Winyah Bay       NOT AVBL
Lake Murray      0620   42      CALM  /  1 1024.7
ACE Basin NERRS  0545   36        CALM     1026.0
Fort Pulaski     0642   43 53  330/  3/  4 1026.6S
Sapelo Island    0600   40      30/  3     1026.0

$$

ANZ835-935-AMZ111-154-330-350-352-354-370-450-454-472-170800-
...C-MAN and Buoy Observations...

STATION/POSITION TIME  TEMP    WIND        PRES    WAVE   SWELL
                       AIR SEA DIR/SP/G            HT/PER HT/PER/DIR
                 (UTC) (F)     (DEG/KT/KT) (MB)    (FT/S) (FT/S/D)
Buoy 41004       0650   60 72  330/  2/  4 1025.3S   2/ 8   2/ 80/ 8
Buoy 41008       0650   55 58   40/  4/  6 1025.9F   1/10   2/130/10
Folly Beach CMAN 0600   44     310/  3/  3 1026.6S
Capers Nearshore 0608   46 55  310/  4/  8 1025.9F


STATION/POSITION TIME  TEMP    WIND        PRES    WAVE   SWELL
                       AIR SEA DIR/SP/G            HT/PER HT/PER/DIR
                 (UTC) (F)     (DEG/KT/KT) (MB)    (FT/S) (FT/S/D)
5E St. Marys GA  0630      62                N/A     1/11
Frying Pan Buoy  0650   56 68  290/  8/ 12 1025.9F   2/10   2/100/10
Buoy 41025       0650   53 72  300/ 14/ 17 1025.6S   3/ 7   2/ 70/ 7
Cape Lookout NC  0600          270/  9/ 10 1025.9F
Buoy 41002       0550   62 74  320/  4/  8 1025.2    4/ 6   3/340/ 6
Buoy 41010       NOT AVBL
St Augustine FL  0700   58 63  350/  6/  7 1025.4F


$$




USA.gov is the U.S. government's official web portal to all federal, state and local government web resources and services.